Location: Buverchy
(49.7308°N, 2.9698°E)
Time: 00:33:38
(UTC+00:00)

Daily predictions for brighter satellites

Satellite Brightness Start Highest point End
(mag) Time Altitude Azimuth Time Altitude Azimuth Time Altitude Azimuth
Cosmos 1943 Rocket 4.4 03:12:50 21° NE 03:12:50 21° NE 03:14:47 10° NE
CENTAUR R/B 3.1 03:44:24 55° ENE 03:44:24 55° ENE 03:50:05 10° NE
Cosmos 2278 Rocket 4.4 03:51:48 15° NNE 03:51:48 15° NNE 03:52:45 10° NNE
NOSS 3-2 (A) 4.0 04:04:16 51° NNE 04:04:16 51° NNE 04:09:21 10° NE
NOSS 3-2 (C) 3.4 04:12:49 75° ENE 04:12:49 75° ENE 04:18:53 10° NE
Meteor 2-3 Rocket 4.4 04:20:25 45° N 04:20:25 45° N 04:24:21 10° NNE
BREEZE-M DEB (TANK) 4.0 04:21:03 41° S 04:21:03 41° S 04:29:24 10° SE
Envisat 4.3 04:18:40 10° NNE 04:23:25 38° E 04:28:09 10° SSE
Cosmos 968 Rocket 4.2 04:27:18 44° NNE 04:27:18 44° NNE 04:30:45 10° NNE
Cosmos 2297 Rocket 4.4 04:25:42 12° N 04:28:40 17° NE 04:32:24 10° ENE
Cosmos 2098 Rocket 3.7 04:32:19 30° SSE 04:34:23 60° E 04:39:40 10° NNE
Cosmos 2369 Rocket 2.2 04:34:16 56° S 04:35:29 80° ESE 04:41:07 10° NNE
Cosmos 2344 3.5 04:34:44 55° WNW 04:35:44 60° NW 04:43:50 10° NE
SL-19 R/B 4.1 04:34:30 10° SSE 04:40:05 86° WSW 04:41:27 54° NNW
USA 238 DEB 3.5 04:39:34 62° WNW 04:40:19 67° NW 04:47:16 10° NE
USA 238 3.5 04:39:39 62° W 04:40:25 67° NW 04:47:22 10° NE
Cosmos 2279 Rocket 4.0 04:35:01 10° N 04:41:15 76° E 04:47:26 10° SSE
Cosmos 1656 Rocket 3.9 04:37:55 23° S 04:41:16 66° ESE 04:46:41 10° NNE
COSMO-SKYMED 1 2.8 04:38:17 10° SSE 04:42:34 67° ENE 04:42:51 64° NE
H-2A R/B 4.2 04:40:00 10° NNE 04:46:53 13° S 04:47:18 10° S
Meteor 1-31 Rocket 4.2 04:40:30 10° NNE 04:44:10 38° E 04:47:50 10° SSE
USA 215 3.2 04:38:13 10° ESE 04:44:45 81° NNE 04:46:50 47° NW
Helios 1B 4.5 04:45:58 10° SSE 04:50:17 83° ENE 04:50:20 83° ENE
Cosmos 1943 Rocket 2.8 04:54:24 38° NNW 04:54:24 38° NNW 04:58:40 10° NNE
CZ-2C R/B 2.6 04:48:44 10° SSE 04:54:12 88° ENE 04:57:38 23° NNW
Kosmos-917 4.2 04:57:03 57° NNE 04:57:03 57° NNE 05:01:39 10° NE
Cosmos 1634 Rocket 4.0 04:58:14 38° NW 05:00:19 54° W 05:06:21 10° SSW
Gblst 52 Del rocket 4.4 04:59:59 49° W 05:01:44 78° N 05:08:39 10° E
Cosmos 2227 Rocket 4.2 05:00:35 10° N 05:04:48 21° NE 05:09:00 10° E
Cosmos 1862 3.6 05:07:19 53° N 05:07:19 53° N 05:10:26 10° N
SKYMED 3 4.4 05:02:22 10° S 05:06:42 73° WSW 05:07:15 63° NW
Cosmos 1515 Rocket 3.8 05:06:34 18° N 05:09:43 68° ENE 05:14:03 10° SSE
Landsat 5 3.5 05:05:57 10° SSE 05:10:28 86° WSW 05:12:32 32° NNW
ADEOS 4.4 05:07:25 10° NNE 05:12:33 52° E 05:17:37 10° S
SJ 16-02 3.0 05:08:55 10° SSE 05:12:54 35° ESE 05:16:53 10° NE
Tsikada Rocket 4.4 05:16:30 37° WNW 05:16:53 37° WNW 05:22:42 10° N
BREEZE-M DEB (TANK) 2.7 05:16:52 61° W 05:17:25 88° S 05:24:38 10° E
Meteor 2-8 Rocket 4.3 05:17:09 10° NNW 05:23:16 69° W 05:29:19 10° S
COSMOS 2487 3.5 05:23:41 22° N 05:25:24 41° ENE 05:28:35 10° SE
CZ-4C R/B 2.5 05:23:22 10° S 05:26:27 74° WSW 05:26:27 74° WSW
SJ-12 4.0 05:25:44 10° N 05:29:46 52° WNW 05:33:47 10° SSW
SKYMED 2 3.9 05:26:37 10° S 05:30:44 42° W 05:31:28 38° WNW
Cosmos 1500 Rocket 4.4 05:26:55 10° S 05:31:15 53° E 05:35:37 10° NNE
MOS 1-B Rocket 4.4 05:25:43 10° SSW 05:31:20 37° W 05:33:52 26° NW
CZ-2C R/B 3.7 05:26:53 10° NNE 05:31:41 54° E 05:36:40 10° S
Cosmos 2180 Rocket 4.4 05:27:20 10° NNW 05:33:24 61° W 05:39:24 10° S
Cosmos 2278 Rocket 4.2 05:33:39 12° NNW 05:33:39 12° NNW 05:35:34 10° N
CENTAUR R/B 3.3 05:31:36 28° WNW 05:34:15 39° NNW 05:41:22 10° NE
FALCON 9 DEB 3.3 05:37:32 40° N 05:37:36 40° N 05:40:23 10° ENE
CZ-4B R/B 3.5 05:36:09 10° NNE 05:39:38 50° E 05:43:08 10° S
Cosmos 1503 Rocket 4.0 05:34:41 10° SW 05:39:55 61° WNW 05:45:14 10° NNE
FALCON 9 DEB 3.2 05:40:01 41° N 05:40:12 41° N 05:42:56 10° E
FALCON 9 DEB 3.2 05:40:11 41° N 05:40:24 43° N 05:43:08 10° E
ATLAS 5 CENTAUR R/B 2.3 05:36:49 10° SSW 05:40:31 49° SE 05:44:44 10° NE
Meteor 1-27 Rocket 3.7 05:35:01 10° NNW 05:40:41 80° W 05:46:26 10° S
Cosmos 1151 Rocket 4.5 05:42:26 21° WSW 05:42:26 21° WSW 05:44:33 10° SW
H-2A R/B 2.3 05:40:13 10° SSE 05:44:29 70° ENE 05:48:53 10° N
Meteor PRIRODA 3.9 05:40:53 10° NNE 05:44:30 67° ESE 05:48:06 10° S
Cosmos 1777 Rocket 4.1 05:42:03 10° SSW 05:47:15 80° ESE 05:52:32 10° NNE
USA 32 4.2 05:42:49 10° N 05:48:05 74° E 05:53:20 10° SSE
Cosmos 773 Rocket 4.2 05:45:01 20° NW 05:48:20 48° WSW 05:53:17 10° S
Lacrosse 4 Rocket 3.6 05:46:50 10° NNW 05:50:13 21° NE 05:53:37 10° E
Cosmos 1515 3.7 05:49:14 10° N 05:53:03 81° E 05:56:51 10° SSE
Cosmos 1340 Rocket 2.8 05:51:42 10° S 05:55:39 88° E 05:59:41 10° NNE
SL-27 R/B 3.2 05:54:53 28° WNW 05:55:45 33° WSW 05:58:57 10° S
Okean 3 Rocket 4.3 05:52:17 10° SW 05:56:21 32° WNW 06:00:27 10° N
Cosmos 1766 Rocket 4.4 05:55:38 10° SW 05:59:16 26° WNW 06:02:55 10° NNW
Envisat 3.6 05:57:49 10° N 06:02:23 34° WNW 06:06:55 10° SW
NOSS 3-2 (C) 4.3 06:00:16 19° WNW 06:03:58 34° NNW 06:10:17 10° NE
DMSP B5D2-2 4.1 05:58:52 10° S 06:03:59 57° W 06:09:08 10° NNW
ATLAS 3B R/B 3.0 05:57:32 10° SSW 06:04:01 69° SE 06:10:52 10° NE
FALCON 9 DEB 3.3 06:03:14 27° NW 06:04:24 43° N 06:07:11 10° E
Cosmos 158 Rocket 4.0 06:04:37 10° NNW 06:09:43 68° WSW 06:14:55 10° SSE
Meteor 1-25 Rocket 4.4 06:05:05 10° S 06:10:41 78° E 06:16:17 10° NNE
Cosmos 1939 Rocket 2.8 06:09:31 10° NNE 06:13:28 89° E 06:17:20 10° SSW
Cosmos 2297 Rocket 2.6 06:08:16 10° NNW 06:13:54 63° ENE 06:19:31 10° SE
PSLV R/B 4.3 06:10:38 10° SSE 06:14:39 64° ENE 06:18:44 10° N
FALCON 9 DEB 3.6 06:13:35 19° WNW 06:15:41 46° N 06:19:00 10° ENE
H-2A R/B 4.2 06:15:01 10° NNW 06:21:58 - WSW 06:17:12 16° WNW
Cosmos 1174 3.0 06:14:28 10° SW 06:17:26 70° NW 06:20:40 10° NE
Meteor 1-31 Rocket 3.9 06:15:17 10° NNW 06:18:21 22° WNW 06:21:25 10° WSW
COSMO-SKYMED 1 4.2 06:16:38 10° SW 06:19:13 15° W 06:20:04 15° WNW
Cosmos 2369 Rocket 3.2 06:16:09 12° W 06:20:10 24° NW 06:24:44 10° NNE
Cosmos 1607 4.0 06:17:00 11° NW 06:23:05 73° SW 06:29:12 10° SSE
Cosmos 1633 Rocket 4.5 06:21:22 10° SSE 06:25:26 41° E 06:29:32 10° NNE
CZ-4B R/B 1.2 06:22:19 10° S 06:25:37 80° WSW 06:28:53 10° NNW
SL-4 R/B 4.4 06:23:53 10° SSW 06:26:43 22° SE 06:29:43 10° E
USA 215 3.9 06:22:03 10° SSE 06:28:08 41° SW 06:34:11 10° WNW
Okean 1 3.2 06:24:47 10° NNW 06:28:45 73° W 06:32:40 10° S
CZ-2D R/B 3.6 06:29:06 10° NNE 06:32:54 70° ESE 06:36:40 10° S
CZ-2C R/B 4.2 06:32:01 10° WSW 06:35:12 16° W 06:38:21 10° NW
Cosmos 2263 Rocket 4.1 06:31:22 10° N 06:35:39 22° NE 06:39:55 10° E
Meteor 1-18 Rocket 4.3 06:30:12 10° NNW 06:36:05 85° W 06:41:50 10° S
NOAA 12 4.2 06:32:20 10° N 06:37:30 56° WNW 06:42:36 10° SW
Cosmos 1943 Rocket 3.9 06:36:00 10° NW 06:38:39 13° NNW 06:41:20 10° N
Nadezhda 4 Rocket 4.4 06:33:08 10° SW 06:38:53 39° WNW 06:44:44 10° N
FengYun 1-2 T 4.2 06:33:29 10° N 06:38:57 68° WNW 06:44:23 10° SSW
Cosmos 2228 Rocket 3.6 06:37:03 10° NNW 06:41:15 40° W 06:45:28 10° SSW
Cosmos 1743 Rocket 4.2 06:37:23 10° SW 06:41:23 34° WNW 06:45:23 10° N
Cosmos 724 4.4 06:36:32 10° NW 06:42:29 81° NE 06:48:17 10° SE
Alouette 2 Rocket 4.4 06:42:00 10° NW 06:45:01 23° W 06:47:56 10° SSW
CORIOLIS 4.2 06:39:33 10° NNE 06:45:02 81° WNW 06:50:29 10° SSW
Lacrosse 5 4.3 06:41:56 10° S 06:46:13 28° SE 06:50:31 10° ENE
Meteor 2-4 Rocket 3.9 06:40:30 10° NNW 06:46:29 87° E 06:52:20 10° SSE
Cosmos 1378 3.9 06:44:50 10° N 06:48:31 56° ENE 06:52:10 10° SSE
Cosmos 2227 Rocket 2.3 06:44:04 10° NNW 06:49:46 82° ENE 06:55:25 10° SSE
SJ 16-02 2.1 06:47:38 10° WSW 06:51:30 30° WNW 06:55:23 10° N
ADEOS 4.4 06:47:24 10° N 06:51:47 28° WNW 06:56:08 10° WSW
Cosmos 1666 Rocket 3.6 06:48:01 10° S 06:52:29 88° W 06:57:01 10° N
Cosmos 1092 Rocket 4.3 06:50:25 10° SSW 06:56:27 48° WNW 07:02:34 10° N
